Location: Kalberh�ni
(46.4610°N, 7.2453°E)
Time: 04:55:06
(UTC+00:00)

Cosmos 1802 Rocket - Pass Details

Date: 26 October 2021
Orbit: 955 x 1010 km, 82.9° (Epoch: 05 December)

Event Time Altitude Azimuth Distance (km) Brightness Sun altitude
Rises 04:04:39 0° 5° (N) 3,682 7.1 -21.1°
Reaches altitude 10° 04:08:56 10° 33° (NNE) 2,742 6.8 -20.4°
Maximum altitude 04:11:38 13° 59° (ENE) 2,540 7.0 -19.9°
Drops below altitude 10° 04:14:20 10° 84° (E) 2,752 7.6 -19.4°
Sets 04:18:37 0° 112° (ESE) 3,708 8.3 -18.7°
